SCP
-0 -0 -0 -0 -0 -0 -0 -0 -0 -0 -0 -0 -0 -0 -0 -0 -0 -0 0 0 -0 -0 -0 -0 -0 -0 -0 0 -0 0 0 0 0 0 0 0 0 0 0 0 0 0 0 0 0 0 0
-0 -0 -0 -0 -0 -0 -0 -0 -0 -0 -0 -0 -0 -0 -0 -0 -0 0 0 0 0 -0 -0 -0 0 -0 0 -0 0 0 0 0 0 0 0 0 0 0 0 0 0 0 0 0 0 0 0
-0 -0 -0 -0 -0 -0 -0 -0 -0 -0 -0 -0 -0 -0 -0 -0 -0 0 0 0 0 -0 0 0 0 0 0 -0 0 0 0 0 0 0 0 0 0 0 0 0 0 0 0 0 0 0 0
0 -0 -0 -0 -0 -0 -0 -0 -0 -0 -0 -0 -0 -0 -0 -0 -0 0 0 0 0 -0 0 0 0 0 0 0 0 0 0 0 -0 0 -0 0 0 0 0 0 0 0 0 0 0 0 0
0 0 0 -0 -0 0 -0 0 0 0 -0 -0 0 0 0 0 0 0 0 0 -0 0 0 0 0 0 0 -0 0 0 0 0 0 0 -0 0 0 0 0 0 0 0 0 0 0 0 0
0 0 0 0 0 0 0 0 0 0 0 0 0 0 0 0 0 0 -0 -0 0 0 0 0 0 0 -0 -0 0 0 0 -0 0 0 0 0 0 0 0 0 0 0 0 0 0 0 0
0 0 0 0 0 0 0 0 0 0 0 0 0 0 0 0 0 0 0 0 0 0 0 0 0 0 -0 0 -0 0 0 0 0 0 -0 0 0 0 0 0 0 0 0 0 0 0 0
0 0 0 0 0 0 0 -0 -0 0 -0 0 0 0 0 0 0 0 0 0 0 0 0 0 0 0 -0 0 0 0 0 0 0 0 0 0 0 0 0 0 0 0 0 0 0 0 0
0 0 0 0 0 0 0 0 0 0 0 0 0 0 0 0 0 0 0 0 0 0 0 0 0 0 0 0 0 0 0 0 0 0 -0 0 0 0 0 0 0 0 0 0 0 0 0
0 0 0 0 0 0 0 0 0 0 0 0 0 0 0 0 0 0 0 0 0 0 0 0 0 0 0 0 0 0 0 0 0 0 0 0 0 0 0 0 0 0 0 0 0 0 0
0 0 0 0 0 0 0 0 0 0 0 0 0 0 0 0 0 0 0 0 0 0 0 0 0 0 0 0 0 0 0 0 0 -0 0 0 0 -0 0 0 0 0 0 0 0 0 0
-0 -0 0 0 0 0 0 0 0 0 0 0 0 -0 0 0 0 0 0 0 0 0 0 0 0 0 0 0 0 0 0 0 0 0 0 0 0 0 0 0 0 0 0 0 0 0 0
-0 -0 -0 -0 0 0 0 0 0 0 0 0 0 0 0 0 0 0 0 0 0 0 0 0 0 0 0 0 0 0 0 0 0 0 0 0 0 0 0 0 0 0 0 0 0 0 0
-0 -0 -0 -0 0 0 0 0 0 0 0 0 0 0 0 0 0 0 0 0 0 0 0 0 0 0 0 0 0 0 0 0 0 -0 0 0 0 0 0 0 0 0 0 0 0 0 0
0 -0 -0 -0 0 0 -0 0 0 0 0 0 0 0 0 0 0 0 0 0 0 0 0 0 0 0 0 0 0 0 0 -0 -0 -0 -0 -0 0 -0 0 0 0 0 0 0 0 0 0
0 0 -0 -0 0 0 0 -0 0 0 0 -0 0 0 0 0 0 0 0 0 0 0 0 0 0 0 0 0 0 0 0 0 -0 -0 -0 -0 0 0 0 0 0 0 0 0 0 0 0
0 0 0 -0 -0 -0 0 0 0 0 0 0 0 0 0 0 0 0 0 0 0 0 0 0 0 0 0 0 0 0 0 0 0 0 0 0 0 0 -0 0 0 0 0 0 0 0 0
0 0 0 0 0 0 -0 -0 -0 0 -0 0 0 0 0 0 0 0 0 0 0 0 0 0 0 0 0 0 0 0 0 0 0 -0 0 0 0 0 0 0 0 0 0 0 0 0 0
0 0 0 0 0 0 0 -0 -0 0 0 0 0 0 0 0 0 0 0 0 0 0 0 0 0 0 0 0 0 0 0 0 0 0 0 0 0 0 0 0 0 0 0 0 0 0 0
0 0 0 0 0 0 0 0 0 -0 0 0 0 0 0 0 0 0 0 0 0 0 0 0 0 0 0 0 0 0 0 0 0 -0 0 0 0 -0 0 0 0 0 0 0 0 0 0
0 0 0 0 0 0 0 0 0 0 0 0 0 0 0 0 0 0 0 0 0 0 0 0 0 0 0 0 0 0 0 0 0 0 -0 0 0 -0 0 -0 0 0 0 0 0 0 0
0 0 0 0 0 0 0 0 0 0 0 0 0 0 0 0 0 0 0 0 0 0 0 0 0 0 0 0 0 0 0 0 0 0 0 -0 -0 -0 -0 -0 -0 -0 -0 -0 0 0 0
0 0 0 0 0 0 0 0 0 0 0 0 0 0 0 0 0 0 0 0 0 0 0 0 0 0 0 0 0 0 -0 -0 0 0 0 -0 -0 -0 -0 -0 0 0 0 0 0 0 -0
0 0 0 0 0 0 0 0 0 0 0 0 0 0 0 0 0 0 0 0 0 0 0 0 0 0 0 -0 -0 0 0 -0 -0 -0 -0 -0 -0 -0 -0 -0 -0 0 0 0 0 0 0
0 0 0 0 0 0 0 0 0 0 0 0 0 0 0 0 0 0 0 0 0 0 0 0 0 0 0 0 0 0 0 0 0 0 -0 -0 0 0 0 0 -0 -0 0 -0 -0 0 0
0 0 0 0 0 0 0 0 0 -0 0 0 0 0 0 0 0 0 0 0 0 0 0 0 0 0 -0 0 0 0 0 0 0 0 0 -0 -0 0 0 0 0 0 0 -0 -0 0 0
0 0 0 0 0 0 0 0 0 0 0 0 0 0 0 0 0 0 0 0 0 0 0 0 0 0 -0 -0 -0 0 0 0 0 0 0 0 0 -0 0 0 0 0 0 0 -0 0 0
0 0 0 0 0 0 0 0 0 0 0 0 0 0 0 0 0 0 0 0 0 0 0 0 0 0 0 0 -0 -0 0 0 0 0 0 0 0 0 0 0 0 0 0 -0 -0 0 0
0 0 0 0 0 0 0 0 0 0 0 0 0 0 0 0 0 0 0 0 0 0 0 0 0 0 0 -0 -0 -0 -0 0 0 0 0 0 0 0 0 0 0 0 -0 0 0 -0 0
Wind_Speed_500mb
36 38 39 40 41 41 41 40 39 39 39 40 40 40 39 39 42 38 34 34 34 37 38 37 37 37 37 25 17 15 27 43 43 34 19 11 21 29 31 28 43 48 45 33 52 33 45
37 37 37 38 38 39 39 39 38 37 38 38 38 38 38 39 40 38 31 26 28 37 37 33 32 36 30 10 24 31 32 18 23 28 22 22 13 26 27 38 41 36 48 57 40 36 53
36 36 36 37 38 38 39 38 38 39 40 40 39 39 38 39 41 40 34 28 34 39 35 31 31 35 31 12 23 38 18 32 36 29 38 27 32 22 9 29 46 59 34 19 47 58 32
36 36 37 38 38 39 39 38 40 42 42 40 39 37 36 35 36 35 30 27 36 35 33 27 29 28 18 24 36 35 34 34 37 30 32 27 29 24 34 19 28 29 39 40 48 25 27
35 35 35 36 37 38 37 38 41 43 45 45 43 41 37 35 35 35 31 35 39 33 24 29 29 16 17 29 34 46 42 36 32 25 19 20 8 22 17 27 21 36 38 57 54 44 25
39 39 39 40 40 40 40 41 43 46 49 51 48 45 40 35 33 31 33 39 31 22 13 19 13 13 8 26 38 46 32 25 34 23 3 5 12 20 27 32 43 51 55 55 49 34 40
41 41 43 44 44 44 45 45 45 46 49 52 53 49 43 31 28 23 34 31 15 4 21 17 18 16 41 33 47 40 33 20 18 17 21 13 18 39 50 48 47 33 39 42 39 28 31
44 44 45 46 47 49 50 51 48 45 46 51 53 50 41 28 19 15 23 15 9 13 22 33 29 39 38 36 20 31 14 7 8 23 12 12 34 38 33 33 47 43 28 27 18 13 21
45 45 46 47 50 53 54 54 54 51 50 52 54 50 38 26 15 8 10 13 14 19 9 20 12 20 22 27 21 22 10 14 19 30 34 33 28 18 35 38 38 47 45 20 10 7 19
45 46 47 49 51 53 56 58 58 56 52 54 56 50 40 19 4 10 3 19 28 8 6 7 5 1 18 25 10 28 18 16 15 26 31 28 28 30 25 42 35 38 35 36 28 13 19
46 47 49 51 52 55 56 58 61 62 58 54 53 39 25 6 3 9 13 20 20 6 9 15 4 14 38 11 25 4 24 11 24 32 14 26 19 32 38 23 31 28 20 30 33 31 24
44 46 51 54 55 57 58 59 61 64 63 55 43 21 15 12 12 17 23 22 11 5 7 6 13 22 31 26 33 17 14 19 29 20 31 29 22 9 15 34 23 36 22 9 9 14 25
44 47 49 53 57 60 60 61 62 64 65 55 30 9 12 14 15 24 28 8 4 6 10 10 16 23 30 16 24 24 25 14 8 11 17 23 35 18 17 9 9 17 37 16 20 20 32
43 46 51 55 58 62 61 61 64 67 66 57 19 4 9 13 18 27 25 2 6 2 7 13 14 31 8 19 23 26 17 12 10 14 3 11 20 14 21 28 24 27 27 20 30 22 26
41 44 49 55 59 61 62 61 61 67 69 63 16 7 7 12 19 25 9 2 3 3 6 14 26 8 6 10 14 18 18 12 3 10 12 9 5 30 7 3 25 14 19 13 4 2 14
42 44 50 56 58 63 63 63 64 63 66 66 21 8 4 14 23 20 3 3 5 5 9 7 8 5 12 19 18 22 12 5 10 18 12 8 9 11 24 15 14 12 17 19 11 12 16
44 49 55 60 57 59 66 63 64 67 62 62 19 2 11 14 20 10 4 5 9 15 8 6 9 14 15 20 15 15 11 18 13 24 23 14 6 5 9 6 4 10 11 14 14 16 9
48 51 56 57 58 57 59 66 61 66 64 58 17 2 12 16 5 3 4 12 12 13 3 10 12 19 14 14 17 13 10 13 21 25 21 12 8 10 11 11 5 15 6 7 18 37 22
51 53 55 54 55 55 57 62 66 57 60 58 19 9 11 13 4 4 9 10 9 9 12 8 9 8 10 14 11 11 18 10 22 9 8 15 4 11 5 10 8 1 5 13 10 10 31
51 51 51 53 51 55 55 58 59 58 49 41 15 6 9 13 8 5 9 8 10 17 20 7 18 16 6 15 20 18 29 19 18 29 38 24 8 18 16 13 13 17 15 13 11 17 29
49 47 50 51 50 50 51 51 53 52 44 27 18 5 8 9 4 14 7 7 17 11 9 15 8 13 17 12 31 32 12 17 24 34 30 8 14 20 24 28 28 32 35 31 30 35 27
48 47 51 52 48 44 43 45 47 46 36 18 11 9 9 15 19 14 8 5 16 8 9 16 14 27 29 25 33 44 42 29 15 11 15 9 10 7 19 30 33 36 38 38 44 39 46
50 51 53 52 46 41 38 39 46 34 28 11 15 8 6 9 7 9 4 10 19 33 22 27 27 29 31 35 41 57 63 62 35 8 7 7 9 8 12 8 18 23 36 43 38 34 36
51 52 52 51 48 42 41 47 49 26 18 19 19 14 5 6 6 13 21 33 29 25 28 40 43 22 21 59 64 43 33 34 29 33 30 7 13 9 10 10 10 6 10 10 22 37 35
56 55 54 50 48 50 53 51 41 16 13 18 19 17 7 6 13 25 15 25 36 38 30 27 33 24 47 29 10 12 3 6 8 14 24 30 13 5 6 12 19 27 9 9 9 27 31
59 56 51 49 49 51 49 44 29 13 13 19 17 20 17 9 8 15 31 21 13 16 17 18 33 35 15 6 5 9 6 8 6 10 6 17 23 11 8 9 9 5 5 12 18 18 12
63 57 52 49 51 49 42 40 33 18 15 22 23 22 24 15 32 15 12 12 11 11 10 28 18 11 12 10 7 5 5 7 9 14 10 3 5 19 19 11 10 1 11 10 9 9 40
66 62 54 52 50 47 42 36 31 25 15 19 28 27 26 24 49 49 41 30 16 15 6 18 19 3 5 11 7 7 5 7 8 6 12 5 9 3 6 11 1 9 21 7 12 29 38
65 60 53 51 50 45 40 35 31 27 16 18 29 19 26 31 39 65 74 70 69 66 39 12 13 16 4 3 2 6 6 6 11 7 9 6 6 6 5 7 28 44 41 33 48 47 43
Wind_Direction_500mb
31 30 29 26 23 20 17 15 12 9 6 3 359 355 352 350 349 347 341 338 337 335 337 335 335 343 342 321 292 296 301 299 291 290 291 276 232 221 224 221 226 232 237 242 239 247 240
26 25 21 19 18 15 13 11 9 7 3 359 355 350 348 348 355 356 349 344 340 331 332 335 344 349 338 312 337 319 323 339 322 331 320 257 239 238 258 239 223 234 236 243 242 234 246
14 12 11 9 7 8 7 7 6 3 359 354 350 347 345 346 352 355 352 351 342 334 335 337 345 341 319 331 353 336 307 325 329 327 336 304 241 246 283 252 245 242 249 238 232 231 241
8 5 3 1 1 2 3 4 2 0 357 353 349 345 342 341 343 348 347 343 336 326 320 327 334 334 284 338 344 347 330 313 306 306 324 327 230 260 231 270 246 227 234 242 229 205 226
8 6 4 3 2 2 4 2 360 359 357 354 352 350 347 342 342 346 345 339 332 326 337 339 333 330 293 338 329 333 326 309 301 283 316 317 252 225 221 228 234 228 229 226 237 212 202
13 11 10 7 5 3 1 358 356 354 353 351 351 350 351 344 341 344 341 338 333 337 343 325 309 316 284 315 318 317 327 304 288 272 231 124 211 223 221 204 217 216 226 233 224 214 211
18 15 14 12 9 3 357 352 349 348 347 348 346 348 345 341 338 345 343 3 9 303 303 262 277 266 285 320 312 326 321 301 276 264 252 195 220 224 225 227 243 261 247 242 247 229 213
19 18 17 14 11 5 0 356 352 348 345 345 342 341 340 336 333 6 5 26 16 319 306 304 274 270 301 307 295 330 331 301 285 271 219 216 233 246 254 254 236 241 251 249 231 225 227
16 15 15 13 12 8 3 358 355 350 345 344 340 335 333 329 309 343 6 12 347 320 259 297 270 278 325 319 298 313 326 300 280 274 249 242 257 244 234 244 232 229 232 216 221 235 250
11 10 10 8 6 4 3 1 357 354 347 344 339 332 325 324 288 320 328 348 331 292 281 283 283 27 328 320 258 315 325 299 258 265 258 246 242 237 254 226 236 234 224 228 239 260 232
7 7 6 5 4 2 360 357 356 356 351 347 341 340 338 28 40 350 326 323 321 169 303 342 344 318 333 334 310 281 343 336 280 262 246 231 246 224 220 234 215 247 204 206 214 230 250
5 5 3 360 359 358 358 357 352 354 354 350 345 1 24 48 21 348 333 325 145 226 268 349 335 339 349 330 332 318 297 5 285 273 252 268 262 291 253 217 211 213 228 250 232 224 234
3 3 3 4 360 356 356 357 355 354 354 353 346 23 48 28 355 340 341 140 238 226 353 340 329 336 329 314 324 333 326 354 6 299 257 235 230 246 256 241 167 181 187 197 219 216 236
1 2 1 360 358 359 355 356 356 355 356 355 344 91 49 24 354 343 343 197 242 54 296 333 327 322 312 353 329 325 319 344 63 326 6 290 222 226 207 230 209 198 200 205 217 209 229
355 357 356 355 354 355 355 354 354 353 355 353 345 163 62 10 355 342 336 69 303 274 309 318 319 304 306 329 328 327 311 311 123 350 340 340 313 325 116 224 204 169 204 225 265 71 217
347 347 346 351 353 355 353 352 352 351 353 351 355 181 32 354 343 344 57 303 273 257 309 306 287 282 307 330 321 334 303 349 357 11 338 328 294 145 306 318 186 229 186 195 207 200 212
342 341 343 346 352 353 352 352 353 350 352 352 354 179 352 346 340 27 67 284 288 288 285 279 280 285 282 316 309 312 291 317 358 350 347 327 290 177 251 197 338 195 217 222 243 235 240
337 339 340 341 344 348 353 355 356 350 351 357 356 272 2 356 43 44 341 316 304 288 299 292 266 275 283 315 301 293 267 303 336 329 328 344 307 285 262 291 294 284 287 280 230 218 237
334 336 338 340 340 341 344 351 358 357 352 352 349 307 348 3 54 355 327 292 272 294 318 317 288 277 288 296 297 261 285 286 335 308 352 356 344 311 296 149 94 211 207 246 254 283 245
336 336 338 340 340 341 341 343 353 1 356 352 352 334 353 53 85 20 339 323 313 274 277 271 283 280 280 281 272 274 280 295 279 293 309 303 248 254 271 324 328 294 289 279 269 253 250
338 343 344 343 341 338 341 347 347 356 6 4 12 35 12 322 352 326 286 286 286 301 328 325 271 238 313 285 299 278 286 312 289 291 292 253 246 236 260 271 276 272 273 271 254 253 253
335 336 337 337 338 338 338 341 347 352 7 14 22 354 323 292 299 299 289 264 290 331 296 291 250 295 294 290 288 291 293 282 263 222 241 246 268 240 258 266 265 268 262 256 255 255 255
340 339 342 341 338 338 334 331 331 350 358 3 338 291 262 287 293 312 299 323 308 321 289 257 295 298 294 290 287 284 282 275 252 230 245 247 233 224 263 313 311 269 250 244 253 260 262
335 335 336 335 335 330 324 322 329 354 333 328 325 307 249 275 268 304 296 303 298 295 291 285 293 281 295 307 300 285 258 257 254 246 221 234 224 239 277 303 253 64 31 314 304 281 279
332 331 330 334 330 326 324 332 334 9 316 301 307 286 233 262 261 293 305 309 310 306 291 274 288 300 314 308 306 315 312 223 216 227 218 213 206 238 240 222 281 286 31 340 311 284 281
337 335 330 325 326 326 330 340 349 348 299 287 281 291 251 279 240 266 306 292 304 318 308 288 311 316 339 318 315 339 335 322 324 308 163 223 223 208 207 250 255 165 274 356 300 271 27
337 337 333 328 326 327 330 330 333 316 287 279 277 291 263 260 276 276 263 292 280 278 287 299 337 314 8 3 350 342 312 324 328 322 337 11 158 228 242 253 263 192 331 338 236 350 325
331 334 329 326 326 329 330 327 328 318 282 281 275 275 280 273 282 274 273 262 255 236 251 307 320 41 322 7 350 337 297 333 292 289 311 311 322 270 226 235 307 294 299 225 303 301 293
326 330 329 328 326 328 329 325 321 319 285 255 280 292 275 264 265 286 287 280 264 259 255 255 286 321 300 330 301 304 303 302 319 313 337 323 329 299 216 277 278 295 281 274 286 264 281
Wind_Speed_850mb
36 38 39 40 41 41 41 40 39 39 39 40 40 40 39 39 42 38 34 34 34 37 38 37 37 37 37 25 17 15 27 43 43 34 19 11 21 29 31 28 43 48 45 33 52 33 45
37 37 37 38 38 39 39 39 38 37 38 38 38 38 38 39 40 38 31 26 28 37 37 33 32 36 30 10 24 31 32 18 23 28 22 22 13 26 27 38 41 36 48 57 40 36 53
36 36 36 37 38 38 39 38 38 39 40 40 39 39 38 39 41 40 34 28 34 39 35 31 31 35 31 12 23 38 18 32 36 29 38 27 32 22 9 29 46 59 34 19 47 58 32
36 36 37 38 38 39 39 38 40 42 42 40 39 37 36 35 36 35 30 27 36 35 33 27 29 28 18 24 36 35 34 34 37 30 32 27 29 24 34 19 28 29 39 40 48 25 27
35 35 35 36 37 38 37 38 41 43 45 45 43 41 37 35 35 35 31 35 39 33 24 29 29 16 17 29 34 46 42 36 32 25 19 20 8 22 17 27 21 36 38 57 54 44 25
39 39 39 40 40 40 40 41 43 46 49 51 48 45 40 35 33 31 33 39 31 22 13 19 13 13 8 26 38 46 32 25 34 23 3 5 12 20 27 32 43 51 55 55 49 34 40
41 41 43 44 44 44 45 45 45 46 49 52 53 49 43 31 28 23 34 31 15 4 21 17 18 16 41 33 47 40 33 20 18 17 21 13 18 39 50 48 47 33 39 42 39 28 31
44 44 45 46 47 49 50 51 48 45 46 51 53 50 41 28 19 15 23 15 9 13 22 33 29 39 38 36 20 31 14 7 8 23 12 12 34 38 33 33 47 43 28 27 18 13 21
45 45 46 47 50 53 54 54 54 51 50 52 54 50 38 26 15 8 10 13 14 19 9 20 12 20 22 27 21 22 10 14 19 30 34 33 28 18 35 38 38 47 45 20 10 7 19
45 46 47 49 51 53 56 58 58 56 52 54 56 50 40 19 4 10 3 19 28 8 6 7 5 1 18 25 10 28 18 16 15 26 31 28 28 30 25 42 35 38 35 36 28 13 19
46 47 49 51 52 55 56 58 61 62 58 54 53 39 25 6 3 9 13 20 20 6 9 15 4 14 38 11 25 4 24 11 24 32 14 26 19 32 38 23 31 28 20 30 33 31 24
44 46 51 54 55 57 58 59 61 64 63 55 43 21 15 12 12 17 23 22 11 5 7 6 13 22 31 26 33 17 14 19 29 20 31 29 22 9 15 34 23 36 22 9 9 14 25
44 47 49 53 57 60 60 61 62 64 65 55 30 9 12 14 15 24 28 8 4 6 10 10 16 23 30 16 24 24 25 14 8 11 17 23 35 18 17 9 9 17 37 16 20 20 32
43 46 51 55 58 62 61 61 64 67 66 57 19 4 9 13 18 27 25 2 6 2 7 13 14 31 8 19 23 26 17 12 10 14 3 11 20 14 21 28 24 27 27 20 30 22 26
41 44 49 55 59 61 62 61 61 67 69 63 16 7 7 12 19 25 9 2 3 3 6 14 26 8 6 10 14 18 18 12 3 10 12 9 5 30 7 3 25 14 19 13 4 2 14
42 44 50 56 58 63 63 63 64 63 66 66 21 8 4 14 23 20 3 3 5 5 9 7 8 5 12 19 18 22 12 5 10 18 12 8 9 11 24 15 14 12 17 19 11 12 16
44 49 55 60 57 59 66 63 64 67 62 62 19 2 11 14 20 10 4 5 9 15 8 6 9 14 15 20 15 15 11 18 13 24 23 14 6 5 9 6 4 10 11 14 14 16 9
48 51 56 57 58 57 59 66 61 66 64 58 17 2 12 16 5 3 4 12 12 13 3 10 12 19 14 14 17 13 10 13 21 25 21 12 8 10 11 11 5 15 6 7 18 37 22
51 53 55 54 55 55 57 62 66 57 60 58 19 9 11 13 4 4 9 10 9 9 12 8 9 8 10 14 11 11 18 10 22 9 8 15 4 11 5 10 8 1 5 13 10 10 31
51 51 51 53 51 55 55 58 59 58 49 41 15 6 9 13 8 5 9 8 10 17 20 7 18 16 6 15 20 18 29 19 18 29 38 24 8 18 16 13 13 17 15 13 11 17 29
49 47 50 51 50 50 51 51 53 52 44 27 18 5 8 9 4 14 7 7 17 11 9 15 8 13 17 12 31 32 12 17 24 34 30 8 14 20 24 28 28 32 35 31 30 35 27
48 47 51 52 48 44 43 45 47 46 36 18 11 9 9 15 19 14 8 5 16 8 9 16 14 27 29 25 33 44 42 29 15 11 15 9 10 7 19 30 33 36 38 38 44 39 46
50 51 53 52 46 41 38 39 46 34 28 11 15 8 6 9 7 9 4 10 19 33 22 27 27 29 31 35 41 57 63 62 35 8 7 7 9 8 12 8 18 23 36 43 38 34 36
51 52 52 51 48 42 41 47 49 26 18 19 19 14 5 6 6 13 21 33 29 25 28 40 43 22 21 59 64 43 33 34 29 33 30 7 13 9 10 10 10 6 10 10 22 37 35
56 55 54 50 48 50 53 51 41 16 13 18 19 17 7 6 13 25 15 25 36 38 30 27 33 24 47 29 10 12 3 6 8 14 24 30 13 5 6 12 19 27 9 9 9 27 31
59 56 51 49 49 51 49 44 29 13 13 19 17 20 17 9 8 15 31 21 13 16 17 18 33 35 15 6 5 9 6 8 6 10 6 17 23 11 8 9 9 5 5 12 18 18 12
63 57 52 49 51 49 42 40 33 18 15 22 23 22 24 15 32 15 12 12 11 11 10 28 18 11 12 10 7 5 5 7 9 14 10 3 5 19 19 11 10 1 11 10 9 9 40
66 62 54 52 50 47 42 36 31 25 15 19 28 27 26 24 49 49 41 30 16 15 6 18 19 3 5 11 7 7 5 7 8 6 12 5 9 3 6 11 1 9 21 7 12 29 38
65 60 53 51 50 45 40 35 31 27 16 18 29 19 26 31 39 65 74 70 69 66 39 12 13 16 4 3 2 6 6 6 11 7 9 6 6 6 5 7 28 44 41 33 48 47 43
Wind_Direction_850mb
31 30 29 26 23 20 17 15 12 9 6 3 359 355 352 350 349 347 341 338 337 335 337 335 335 343 342 321 292 296 301 299 291 290 291 276 232 221 224 221 226 232 237 242 239 247 240
26 25 21 19 18 15 13 11 9 7 3 359 355 350 348 348 355 356 349 344 340 331 332 335 344 349 338 312 337 319 323 339 322 331 320 257 239 238 258 239 223 234 236 243 242 234 246
14 12 11 9 7 8 7 7 6 3 359 354 350 347 345 346 352 355 352 351 342 334 335 337 345 341 319 331 353 336 307 325 329 327 336 304 241 246 283 252 245 242 249 238 232 231 241
8 5 3 1 1 2 3 4 2 0 357 353 349 345 342 341 343 348 347 343 336 326 320 327 334 334 284 338 344 347 330 313 306 306 324 327 230 260 231 270 246 227 234 242 229 205 226
8 6 4 3 2 2 4 2 360 359 357 354 352 350 347 342 342 346 345 339 332 326 337 339 333 330 293 338 329 333 326 309 301 283 316 317 252 225 221 228 234 228 229 226 237 212 202
13 11 10 7 5 3 1 358 356 354 353 351 351 350 351 344 341 344 341 338 333 337 343 325 309 316 284 315 318 317 327 304 288 272 231 124 211 223 221 204 217 216 226 233 224 214 211
18 15 14 12 9 3 357 352 349 348 347 348 346 348 345 341 338 345 343 3 9 303 303 262 277 266 285 320 312 326 321 301 276 264 252 195 220 224 225 227 243 261 247 242 247 229 213
19 18 17 14 11 5 0 356 352 348 345 345 342 341 340 336 333 6 5 26 16 319 306 304 274 270 301 307 295 330 331 301 285 271 219 216 233 246 254 254 236 241 251 249 231 225 227
16 15 15 13 12 8 3 358 355 350 345 344 340 335 333 329 309 343 6 12 347 320 259 297 270 278 325 319 298 313 326 300 280 274 249 242 257 244 234 244 232 229 232 216 221 235 250
11 10 10 8 6 4 3 1 357 354 347 344 339 332 325 324 288 320 328 348 331 292 281 283 283 27 328 320 258 315 325 299 258 265 258 246 242 237 254 226 236 234 224 228 239 260 232
7 7 6 5 4 2 360 357 356 356 351 347 341 340 338 28 40 350 326 323 321 169 303 342 344 318 333 334 310 281 343 336 280 262 246 231 246 224 220 234 215 247 204 206 214 230 250
5 5 3 360 359 358 358 357 352 354 354 350 345 1 24 48 21 348 333 325 145 226 268 349 335 339 349 330 332 318 297 5 285 273 252 268 262 291 253 217 211 213 228 250 232 224 234
3 3 3 4 360 356 356 357 355 354 354 353 346 23 48 28 355 340 341 140 238 226 353 340 329 336 329 314 324 333 326 354 6 299 257 235 230 246 256 241 167 181 187 197 219 216 236
1 2 1 360 358 359 355 356 356 355 356 355 344 91 49 24 354 343 343 197 242 54 296 333 327 322 312 353 329 325 319 344 63 326 6 290 222 226 207 230 209 198 200 205 217 209 229
355 357 356 355 354 355 355 354 354 353 355 353 345 163 62 10 355 342 336 69 303 274 309 318 319 304 306 329 328 327 311 311 123 350 340 340 313 325 116 224 204 169 204 225 265 71 217
347 347 346 351 353 355 353 352 352 351 353 351 355 181 32 354 343 344 57 303 273 257 309 306 287 282 307 330 321 334 303 349 357 11 338 328 294 145 306 318 186 229 186 195 207 200 212
342 341 343 346 352 353 352 352 353 350 352 352 354 179 352 346 340 27 67 284 288 288 285 279 280 285 282 316 309 312 291 317 358 350 347 327 290 177 251 197 338 195 217 222 243 235 240
337 339 340 341 344 348 353 355 356 350 351 357 356 272 2 356 43 44 341 316 304 288 299 292 266 275 283 315 301 293 267 303 336 329 328 344 307 285 262 291 294 284 287 280 230 218 237
334 336 338 340 340 341 344 351 358 357 352 352 349 307 348 3 54 355 327 292 272 294 318 317 288 277 288 296 297 261 285 286 335 308 352 356 344 311 296 149 94 211 207 246 254 283 245
336 336 338 340 340 341 341 343 353 1 356 352 352 334 353 53 85 20 339 323 313 274 277 271 283 280 280 281 272 274 280 295 279 293 309 303 248 254 271 324 328 294 289 279 269 253 250
338 343 344 343 341 338 341 347 347 356 6 4 12 35 12 322 352 326 286 286 286 301 328 325 271 238 313 285 299 278 286 312 289 291 292 253 246 236 260 271 276 272 273 271 254 253 253
335 336 337 337 338 338 338 341 347 352 7 14 22 354 323 292 299 299 289 264 290 331 296 291 250 295 294 290 288 291 293 282 263 222 241 246 268 240 258 266 265 268 262 256 255 255 255
340 339 342 341 338 338 334 331 331 350 358 3 338 291 262 287 293 312 299 323 308 321 289 257 295 298 294 290 287 284 282 275 252 230 245 247 233 224 263 313 311 269 250 244 253 260 262
335 335 336 335 335 330 324 322 329 354 333 328 325 307 249 275 268 304 296 303 298 295 291 285 293 281 295 307 300 285 258 257 254 246 221 234 224 239 277 303 253 64 31 314 304 281 279
332 331 330 334 330 326 324 332 334 9 316 301 307 286 233 262 261 293 305 309 310 306 291 274 288 300 314 308 306 315 312 223 216 227 218 213 206 238 240 222 281 286 31 340 311 284 281
337 335 330 325 326 326 330 340 349 348 299 287 281 291 251 279 240 266 306 292 304 318 308 288 311 316 339 318 315 339 335 322 324 308 163 223 223 208 207 250 255 165 274 356 300 271 27
337 337 333 328 326 327 330 330 333 316 287 279 277 291 263 260 276 276 263 292 280 278 287 299 337 314 8 3 350 342 312 324 328 322 337 11 158 228 242 253 263 192 331 338 236 350 325
331 334 329 326 326 329 330 327 328 318 282 281 275 275 280 273 282 274 273 262 255 236 251 307 320 41 322 7 350 337 297 333 292 289 311 311 322 270 226 235 307 294 299 225 303 301 293
326 330 329 328 326 328 329 325 321 319 285 255 280 292 275 264 265 286 287 280 264 259 255 255 286 321 300 330 301 304 303 302 319 313 337 323 329 299 216 277 278 295 281 274 286 264 281